SNORRE B OILP current weather conditions

sailwx.info

Wind from 280 at 10 knots

Air temperature 8.0° C
Visibility: greater than 5.4 NM
Dewpoint 6.0° C

Last reported at 2015-Apr-18 07:20 UTC.
Time now 2015-Apr-18 08:52 UTC

Location: N 61°32' E 002°13'.
View on Google Maps.

See reports from other nearby stations

  
Tides and Currents Weather Stations Pressure Air Temp Water Temp Dewpoint Dewpoint Depression Visibility Wind Speed Wind Dir Waves Ship Positions
date/time (UTC)wind fromknots sea level pressurealtimeterstation pressurevisibilityair tempwater tempwave heightnotes
2015-Apr-18 07:20 280 10 5.4 8.0
2015-Apr-18 06:50 280 10 5.4 8.0
2015-Apr-18 06:20 280 9 5.4 8.0
2015-Apr-18 05:50 280 10 5.4 8.0
2015-Apr-18 05:20 280 9 5.4 8.0
2015-Apr-18 04:50 280 9 5.4 8.0
2015-Apr-18 04:20 280 8 5.4 8.0
2015-Apr-18 03:50 290 9 5.4 8.0
2015-Apr-18 03:20 300 10 5.4 8.0
2015-Apr-18 02:50 280 6 5.4 8.0
2015-Apr-18 02:20 280 4 5.4 8.0
2015-Apr-18 01:50 270 6 5.4 7.0
2015-Apr-18 01:20 260 5 5.4 7.0
2015-Apr-18 00:50 260 5 5.4 7.0
2015-Apr-18 00:20 300 4 5.4 7.0
2015-Apr-17 23:50 330 4 5.4 7.0
2015-Apr-17 23:20 340 4 5.4 7.0
2015-Apr-17 22:50 360 4 5.4 7.0
2015-Apr-17 22:20 030 4 5.4 7.0
2015-Apr-17 21:50 010 6 5.4 7.0
2015-Apr-17 21:20 360 7 5.4 7.0
2015-Apr-17 20:50 360 8 5.4 7.0
2015-Apr-17 20:20 350 7 5.4 7.0
2015-Apr-17 19:50 360 8 5.4 7.0
2015-Apr-17 19:20 360 9 5.4 7.0
2015-Apr-17 18:50 360 10 5.4 7.0
2015-Apr-17 18:20 010 12 5.4 7.0
2015-Apr-17 17:50 010 11 5.4 7.0
2015-Apr-17 17:20 010 11 5.4 7.0
2015-Apr-17 16:50 360 11 5.4 7.0
2015-Apr-17 16:20 360 11 5.4 7.0
2015-Apr-17 15:50 360 10 5.4 7.0
2015-Apr-17 15:20 010 8 5.4 7.0
2015-Apr-17 14:50 360 8 5.4 7.0
2015-Apr-17 14:20 360 8 5.4 7.0
2015-Apr-17 13:50 360 9 5.4 7.0
2015-Apr-17 13:20 360 9 5.4 7.0
2015-Apr-17 12:50 010 9 5.4 7.0
2015-Apr-17 12:20 360 10 5.4 6.0
2015-Apr-17 11:50 360 8 5.4 6.0
2015-Apr-17 11:20 350 8 5.4 6.0
2015-Apr-17 10:50 350 6 5.4 6.0
2015-Apr-17 10:20 020 6 5.4 6.0
2015-Apr-17 09:50 030 6 5.4 6.0
2015-Apr-17 09:20 040 7 5.4 7.0
2015-Apr-17 08:50 020 7 5.4 6.0
2015-Apr-17 08:20 030 7 5.4 6.0
2015-Apr-17 07:50 020 9 5.4 6.0
2015-Apr-17 07:20 010 8 5.4 6.0
2015-Apr-17 06:50 020 9 5.4 6.0
2015-Apr-17 06:20 020 7 5.4 6.0
2015-Apr-17 05:50 030 7 5.4 6.0
2015-Apr-17 05:20 040 6 5.4 6.0
2015-Apr-17 04:50 040 5 5.4 5.0
2015-Apr-17 04:20 050 6 5.4 6.0
2015-Apr-17 03:50 050 6 5.4 6.0
2015-Apr-17 03:20 050 8 5.4 6.0
2015-Apr-17 02:50 050 7 5.4 6.0
2015-Apr-17 02:20 030 8 5.4 5.0
2015-Apr-17 01:50 040 7 5.4 6.0
2015-Apr-17 01:20 050 4 5.4 6.0
2015-Apr-17 00:50 060 8 5.4 6.0
2015-Apr-17 00:20 050 8 5.4 6.0
2015-Apr-16 23:50 030 8 5.4 6.0
2015-Apr-16 23:20 020 6 5.4 6.0
2015-Apr-16 22:50 010 7 5.4 6.0
2015-Apr-16 22:20 020 6 5.4 6.0
2015-Apr-16 21:50 010 3 5.4 6.0
2015-Apr-16 21:20 030 5 5.4 6.0
2015-Apr-16 20:50 360 6 5.4 6.0
2015-Apr-16 20:20 330 6 5.4 6.0
2015-Apr-16 19:50 310 6 5.4 6.0 Light rain showers.
2015-Apr-16 19:20 260 4 5.4 6.0
2015-Apr-16 18:50 270 4 5.4 6.0
2015-Apr-16 18:20 290 5 5.4 6.0
2015-Apr-16 17:50 290 6 5.4 6.0
2015-Apr-16 17:20 300 7 5.4 6.0
2015-Apr-16 16:50 320 7 5.4 6.0
2015-Apr-16 16:20 340 6 5.4 6.0
2015-Apr-16 15:50 340 7 5.4 6.0
2015-Apr-16 15:20 340 9 5.4 6.0
2015-Apr-16 14:50 330 10 5.4 7.0
2015-Apr-16 14:20 310 11 5.4 6.0
2015-Apr-16 13:50 320 12 5.4 6.0
2015-Apr-16 13:20 320 12 5.4 6.0
2015-Apr-16 12:50 340 13 5.4 6.0
2015-Apr-16 12:20 330 9 5.4 6.0
2015-Apr-16 11:50 340 14 5.4 6.0
2015-Apr-16 11:20 340 11 5.4 6.0
2015-Apr-16 10:50 340 12 5.4 5.0
2015-Apr-16 10:20 350 15 5.4 5.0
2015-Apr-16 09:50 350 15 5.4 5.0
2015-Apr-16 09:20 5.4
2015-Apr-16 08:50
2015-Apr-16 08:20 340 13 5.4 5.0